Hourly Weather Roundup
Issued by NWS Central Illinois

Home | Current Version | Previous Version | Text Only | Print | Product List | Glossary On
Versions: 1 2 3 4 5 6 7 8 9 10 11 12 13 14 15 16 17 18 19 20 21 22 23 24 25 26 27 28 29 30 31 32 33 34 35 36 37 38 39 40 41 42 43 44 45 46 47 48 49 50
000
NZUS43 KILX 290610
HWRILX

AREA WEATHER ROUNDUP
NATIONAL WEATHER SERVICE, LINCOLN IL
100 AM CDT TUE JUL 29 2014


CITY           SKY/WX    TMP DP  RH WIND       PRES   REMARKS
BLOOMINGTON    CLEAR     57  51  80 W8        30.11S
CHAMPAIGN      CLEAR     55  52  89 W6        30.10S
6HR MIN TEMP:  54; 6HR MAX TEMP:  68;

DECATUR        CLEAR     59  52  77 W6        30.11S
6HR MIN TEMP:  58; 6HR MAX TEMP:  71;

FLORA          CLEAR     54  52  94 CALM      30.10F
GALESBURG      CLEAR     53  52  96 CALM      30.13R
JACKSONVILLE   CLEAR     55  54  95 W3        30.14S
6HR MIN TEMP:  55; 6HR MAX TEMP:  71;

LACON          CLEAR     55  51  88 CALM      30.09S
6HR MIN TEMP:  54; 6HR MAX TEMP:  69;

LAWRENCEVILLE  CLEAR     57  53  86 NW3       30.09F
6HR MIN TEMP:  56; 6HR MAX TEMP:  72;

LITCHFIELD     CLEAR     54  52  94 NW5       30.12S
$$


CITY           SKY/WX    TMP DP  RH WIND       PRES   REMARKS
LINCOLN        CLEAR     60  53  78 CALM      30.09S
6HR MIN TEMP:  58; 6HR MAX TEMP:  71;

MACOMB         CLEAR     53  53  99 CALM      30.15R
MATTOON        CLEAR     56  50  80 W3        30.09F
6HR MIN TEMP:  55; 6HR MAX TEMP:  69;

MT CARMEL AP   CLEAR     55  54  94 CALM      30.09S
OLNEY-NOBLE AP CLEAR     54  52  94 CALM      30.10S
PARIS          CLEAR     49  49  97 CALM      30.10R
6HR MIN TEMP:  49; 6HR MAX TEMP:  66;

PEORIA         CLEAR     58  52  80 CALM      30.11S
6HR MIN TEMP:  58; 6HR MAX TEMP:  71;

PONTIAC        CLEAR     55  54  94 CALM      30.08S
RANTOUL        CLEAR     56  51  84 W6        30.09F
6HR MIN TEMP:  56; 6HR MAX TEMP:  70;

ROBINSON       CLEAR     55  53  94 CALM      30.10F
6HR MIN TEMP:  53; 6HR MAX TEMP:  72;

SPRINGFIELD    CLEAR     55  53  93 W5        30.12S
6HR MIN TEMP:  55; 6HR MAX TEMP:  73;

TAYLORVILLE    CLEAR     52  50  93 CALM      30.12R
$$

...REGIONAL REPORTS...


CITY           SKY/WX    TMP DP  RH WIND       PRES   REMARKS
CHICAGO O`HARE MOCLDY    63  51  65 NW3       30.05S
KANKAKEE       CLEAR     54  51  90 CALM      30.07S
MOLINE         CLEAR     56  53  90 SW3       30.12R
MOUNT VERNON   CLEAR     54  48  82 CALM      30.11F
PITTSFIELD     CLEAR     57  55  91 CALM      30.15S
QUINCY         CLEAR     59  55  87 CALM      30.14S
ROCKFORD       MOCLDY    62  51  67 NW9       30.09F
$$


CITY           SKY/WX    TMP DP  RH WIND       PRES   REMARKS
BURLINGTON     CLEAR     59  57  93 NW6       30.13R
CEDAR RAPIDS   CLEAR     58  54  86 NW6       30.13R
DES MOINES     CLEAR     63  59  87 NW3       30.16S
KIRKSVILLE     CLEAR     57  56  96 CALM      30.17R FOG
OTTUMWA        CLEAR     58  55  90 W6        30.15S
ST LOUIS       CLEAR     62  54  74 CALM      30.14S
$$


CITY           SKY/WX    TMP DP  RH WIND       PRES   REMARKS
TERRE HAUTE    CLEAR     52  49  89 W3        30.09R
EVANSVILLE     CLEAR     62  50  64 N6        30.08F
INDIANAPOLIS   PTCLDY    56  47  71 N9        30.05R
LAFAYETTE      CLEAR     52  49  89 W3        30.06F
MADISON        CLEAR     62  52  69 NW3       30.07S
MILWAUKEE      MOCLDY    59  50  72 SW3       30.05S
$$




USA.gov is the U.S. government's official web portal to all federal, state and local government web resources and services.